Time,TemperatureF,DewpointF,PressureIn,WindDirection,WindDirectionDegrees,WindSpeedMPH,WindSpeedGustMPH,Humidity,HourlyPrecipIn,Conditions,Clouds,dailyrainin,SoftwareType,DateUTC
2013-02-03 00:01:00,55.8,35.2,30.12,East,90,1.8,3.1,46,0.00,,,0.00,WUHU216HW,2013-02-03 07:01:00,
2013-02-03 00:06:00,55.8,35.2,30.11,East,90,2.0,3.1,46,0.00,,,0.00,WUHU216HW,2013-02-03 07:06:00,
2013-02-03 00:11:00,55.8,35.2,30.11,ESE,113,1.6,2.7,46,0.00,,,0.00,WUHU216HW,2013-02-03 07:11:00,
2013-02-03 00:16:00,55.8,35.2,30.11,ENE,68,2.5,2.5,46,0.00,,,0.00,WUHU216HW,2013-02-03 07:16:00,
2013-02-03 00:21:00,55.8,35.2,30.11,ENE,68,3.4,3.4,46,0.00,,,0.00,WUHU216HW,2013-02-03 07:21:00,
2013-02-03 00:26:00,55.8,35.2,30.11,East,90,2.2,3.4,46,0.00,,,0.00,WUHU216HW,2013-02-03 07:26:00,
2013-02-03 00:31:00,55.8,35.2,30.11,ESE,113,2.0,3.4,46,0.00,,,0.00,WUHU216HW,2013-02-03 07:31:00,
2013-02-03 00:36:00,55.8,35.2,30.11,East,90,1.6,2.7,46,0.00,,,0.00,WUHU216HW,2013-02-03 07:36:00,
2013-02-03 00:41:00,55.6,35.0,30.11,ESE,113,1.1,2.7,46,0.00,,,0.00,WUHU216HW,2013-02-03 07:41:00,
2013-02-03 00:46:00,55.8,35.2,30.11,NE,45,1.6,2.5,46,0.00,,,0.00,WUHU216HW,2013-02-03 07:46:00,
2013-02-03 00:51:00,55.8,35.2,30.11,NE,45,1.3,2.5,46,0.00,,,0.00,WUHU216HW,2013-02-03 07:51:00,
2013-02-03 00:56:00,55.8,35.2,30.11,NE,45,1.3,2.0,46,0.00,,,0.00,WUHU216HW,2013-02-03 07:56:00,
2013-02-03 01:01:00,56.0,35.4,30.11,ESE,113,1.3,2.0,46,0.00,,,0.00,WUHU216HW,2013-02-03 08:01:00,
2013-02-03 01:06:00,56.0,35.4,30.10,ESE,113,1.3,2.0,46,0.00,,,0.00,WUHU216HW,2013-02-03 08:06:00,
2013-02-03 01:11:00,55.8,35.2,30.10,East,90,1.3,2.2,46,0.00,,,0.00,WUHU216HW,2013-02-03 08:11:00,
2013-02-03 01:16:00,55.8,35.2,30.10,East,90,2.7,3.6,46,0.00,,,0.00,WUHU216HW,2013-02-03 08:16:00,
2013-02-03 01:21:00,55.8,35.2,30.09,ENE,68,2.7,3.6,46,0.00,,,0.00,WUHU216HW,2013-02-03 08:21:00,
2013-02-03 01:26:00,55.8,35.2,30.09,ENE,68,1.8,3.6,46,0.00,,,0.00,WUHU216HW,2013-02-03 08:26:00,
2013-02-03 01:31:00,56.0,35.4,30.09,ESE,113,1.3,3.1,46,0.00,,,0.00,WUHU216HW,2013-02-03 08:31:00,
2013-02-03 01:36:00,55.8,34.7,30.09,East,90,2.9,3.4,45,0.00,,,0.00,WUHU216HW,2013-02-03 08:36:00,
2013-02-03 01:41:00,55.8,34.7,30.08,East,90,1.8,3.6,45,0.00,,,0.00,WUHU216HW,2013-02-03 08:41:00,
2013-02-03 01:46:00,55.6,33.9,30.08,NE,45,2.2,3.6,44,0.00,,,0.00,WUHU216HW,2013-02-03 08:46:00,
2013-02-03 01:51:00,55.6,33.9,30.08,East,90,1.8,3.1,44,0.00,,,0.00,WUHU216HW,2013-02-03 08:51:00,
2013-02-03 01:56:00,55.8,34.1,30.07,NE,45,3.1,3.1,44,0.00,,,0.00,WUHU216HW,2013-02-03 08:56:00,
2013-02-03 02:01:00,56.0,33.7,30.07,East,90,2.7,3.6,43,0.00,,,0.00,WUHU216HW,2013-02-03 09:01:00,
2013-02-03 02:06:00,56.0,33.7,30.07,ESE,113,0.9,3.6,43,0.00,,,0.00,WUHU216HW,2013-02-03 09:06:00,
2013-02-03 02:11:00,56.0,33.7,30.07,ENE,68,1.3,2.9,43,0.00,,,0.00,WUHU216HW,2013-02-03 09:11:00,
2013-02-03 02:16:00,56.2,33.8,30.07,ENE,68,2.2,2.2,43,0.00,,,0.00,WUHU216HW,2013-02-03 09:16:00,
2013-02-03 02:21:00,56.2,33.8,30.07,ENE,68,1.3,2.2,43,0.00,,,0.00,WUHU216HW,2013-02-03 09:21:00,
2013-02-03 02:26:00,56.2,33.3,30.07,NE,45,0.2,2.2,42,0.00,,,0.00,WUHU216HW,2013-02-03 09:26:00,
2013-02-03 02:31:00,56.2,33.8,30.07,NNE,23,0.4,1.8,43,0.00,,,0.00,WUHU216HW,2013-02-03 09:31:00,
2013-02-03 02:36:00,56.2,33.8,30.06,NE,45,1.1,1.6,43,0.00,,,0.00,WUHU216HW,2013-02-03 09:36:00,
2013-02-03 02:41:00,56.2,33.8,30.06,NE,45,2.2,2.5,43,0.00,,,0.00,WUHU216HW,2013-02-03 09:41:00,
2013-02-03 02:46:00,56.3,32.9,30.06,ENE,68,1.3,2.5,41,0.00,,,0.00,WUHU216HW,2013-02-03 09:46:00,
2013-02-03 02:51:00,56.5,33.0,30.06,ENE,68,1.6,2.2,41,0.00,,,0.00,WUHU216HW,2013-02-03 09:51:00,
2013-02-03 02:56:00,56.7,32.7,30.06,NE,45,2.5,2.5,40,0.00,,,0.00,WUHU216HW,2013-02-03 09:56:00,
2013-02-03 03:01:00,57.2,32.4,30.06,ENE,68,2.5,2.9,39,0.00,,,0.00,WUHU216HW,2013-02-03 10:01:00,
2013-02-03 03:06:00,57.4,32.6,30.06,NNE,23,2.7,3.1,39,0.00,,,0.00,WUHU216HW,2013-02-03 10:06:00,
2013-02-03 03:11:00,57.6,32.8,30.06,SSW,203,0.4,3.1,39,0.00,,,0.00,WUHU216HW,2013-02-03 10:11:00,
2013-02-03 03:16:00,57.4,32.6,30.06,South,180,0.2,2.2,39,0.00,,,0.00,WUHU216HW,2013-02-03 10:16:00,
2013-02-03 03:21:00,57.1,32.2,30.06,North,0,0.0,1.3,39,0.00,,,0.00,WUHU216HW,2013-02-03 10:21:00,
2013-02-03 03:26:00,56.5,32.5,30.06,NE,45,2.0,2.0,40,0.00,,,0.00,WUHU216HW,2013-02-03 10:26:00,
2013-02-03 03:31:00,56.5,32.5,30.06,NE,45,2.0,2.5,40,0.00,,,0.00,WUHU216HW,2013-02-03 10:31:00,
2013-02-03 03:36:00,56.5,31.8,30.06,ENE,68,1.8,2.5,39,0.00,,,0.00,WUHU216HW,2013-02-03 10:36:00,
2013-02-03 03:41:00,56.3,31.6,30.06,South,180,2.5,2.5,39,0.00,,,0.00,WUHU216HW,2013-02-03 10:41:00,
2013-02-03 03:46:00,55.8,32.4,30.06,South,180,2.5,4.3,41,0.00,,,0.00,WUHU216HW,2013-02-03 10:46:00,
2013-02-03 03:51:00,55.6,32.8,30.06,ESE,113,1.1,4.3,42,0.00,,,0.00,WUHU216HW,2013-02-03 10:51:00,
2013-02-03 03:56:00,55.3,32.5,30.06,NNE,23,2.5,2.5,42,0.00,,,0.00,WUHU216HW,2013-02-03 10:56:00,
2013-02-03 04:01:00,55.3,32.5,30.06,North,0,2.5,3.6,42,0.00,,,0.00,WUHU216HW,2013-02-03 11:01:00,
2013-02-03 04:06:00,55.4,32.6,30.06,NE,45,1.1,3.6,42,0.00,,,0.00,WUHU216HW,2013-02-03 11:06:00,
2013-02-03 04:11:00,55.4,32.6,30.05,SE,135,1.3,2.5,42,0.00,,,0.00,WUHU216HW,2013-02-03 11:11:00,
2013-02-03 04:16:00,55.1,32.9,30.05,ESE,113,2.5,2.5,43,0.00,,,0.00,WUHU216HW,2013-02-03 11:16:00,
2013-02-03 04:21:00,54.9,32.7,30.05,SE,135,4.9,5.6,43,0.00,,,0.00,WUHU216HW,2013-02-03 11:21:00,
2013-02-03 04:26:00,54.7,32.0,30.04,East,90,4.0,5.8,42,0.00,,,0.00,WUHU216HW,2013-02-03 11:26:00,
2013-02-03 04:31:00,54.7,32.0,30.04,ENE,68,3.4,5.8,42,0.00,,,0.00,WUHU216HW,2013-02-03 11:31:00,
2013-02-03 04:36:00,54.9,31.6,30.03,ENE,68,4.3,5.6,41,0.00,,,0.00,WUHU216HW,2013-02-03 11:36:00,
2013-02-03 04:41:00,55.1,31.8,30.03,East,90,5.1,5.6,41,0.00,,,0.00,WUHU216HW,2013-02-03 11:41:00,
2013-02-03 04:46:00,55.1,31.8,30.03,ESE,113,2.2,5.1,41,0.00,,,0.00,WUHU216HW,2013-02-03 11:46:00,
2013-02-03 04:51:00,55.1,31.1,30.03,ESE,113,1.8,5.1,40,0.00,,,0.00,WUHU216HW,2013-02-03 11:51:00,
2013-02-03 04:56:00,54.9,31.1,30.03,ESE,113,3.1,3.4,40,0.00,,,0.00,WUHU216HW,2013-02-03 11:56:00,
2013-02-03 05:01:00,54.9,31.1,30.03,East,90,2.5,3.4,40,0.00,,,0.00,WUHU216HW,2013-02-03 12:01:00,
2013-02-03 05:06:00,54.9,31.1,30.03,East,90,2.5,3.4,40,0.00,,,0.00,WUHU216HW,2013-02-03 12:06:00,
2013-02-03 05:11:00,54.9,31.1,30.03,SE,135,2.5,2.7,40,0.00,,,0.00,WUHU216HW,2013-02-03 12:11:00,
2013-02-03 05:16:00,54.7,30.9,30.03,ESE,113,3.8,3.8,40,0.00,,,0.00,WUHU216HW,2013-02-03 12:16:00,
2013-02-03 05:21:00,54.7,30.9,30.02,SE,135,3.6,4.0,40,0.00,,,0.00,WUHU216HW,2013-02-03 12:21:00,
2013-02-03 05:26:00,54.7,30.9,30.02,SE,135,3.1,4.0,40,0.00,,,0.00,WUHU216HW,2013-02-03 12:26:00,
2013-02-03 05:31:00,54.5,30.7,30.02,SE,135,2.2,3.8,40,0.00,,,0.00,WUHU216HW,2013-02-03 12:31:00,
2013-02-03 05:36:00,54.4,29.9,30.02,ESE,113,3.4,3.8,39,0.00,,,0.00,WUHU216HW,2013-02-03 12:36:00,
2013-02-03 05:41:00,54.4,29.9,30.02,East,90,2.7,4.0,39,0.00,,,0.00,WUHU216HW,2013-02-03 12:41:00,
2013-02-03 05:46:00,54.4,29.9,30.02,ENE,68,2.5,4.0,39,0.00,,,0.00,WUHU216HW,2013-02-03 12:46:00,
2013-02-03 05:51:00,54.5,30.0,30.02,East,90,2.5,4.7,39,0.00,,,0.00,WUHU216HW,2013-02-03 12:51:00,
2013-02-03 05:56:00,54.4,29.9,30.02,East,90,3.4,4.7,39,0.00,,,0.00,WUHU216HW,2013-02-03 12:56:00,
2013-02-03 06:01:00,54.4,29.9,30.02,ENE,68,4.0,4.0,39,0.00,,,0.00,WUHU216HW,2013-02-03 13:01:00,
2013-02-03 06:06:00,54.4,29.9,30.01,NE,45,2.5,4.3,39,0.00,,,0.00,WUHU216HW,2013-02-03 13:06:00,
2013-02-03 06:11:00,54.4,29.9,30.01,East,90,2.0,4.7,39,0.00,,,0.00,WUHU216HW,2013-02-03 13:11:00,
2013-02-03 06:16:00,54.5,29.4,30.01,NE,45,2.0,4.7,38,0.00,,,0.00,WUHU216HW,2013-02-03 13:16:00,
2013-02-03 06:21:00,54.7,29.4,30.01,ESE,113,2.0,3.8,38,0.00,,,0.00,WUHU216HW,2013-02-03 13:21:00,
2013-02-03 06:26:00,54.7,29.4,30.01,NE,45,1.1,3.1,38,0.00,,,0.00,WUHU216HW,2013-02-03 13:26:00,
2013-02-03 06:31:00,54.9,28.9,30.02,NE,45,3.4,3.8,37,0.00,,,0.00,WUHU216HW,2013-02-03 13:31:00,
2013-02-03 06:36:00,55.1,29.1,30.02,North,0,2.5,4.3,37,0.00,,,0.00,WUHU216HW,2013-02-03 13:36:00,
2013-02-03 06:41:00,55.4,28.7,30.02,ENE,68,2.7,5.1,36,0.00,,,0.00,WUHU216HW,2013-02-03 13:41:00,
2013-02-03 06:46:00,55.6,28.9,30.02,East,90,3.4,5.8,36,0.00,,,0.00,WUHU216HW,2013-02-03 13:46:00,
2013-02-03 06:51:00,55.8,29.0,30.02,East,90,2.2,5.8,36,0.00,,,0.00,WUHU216HW,2013-02-03 13:51:00,
2013-02-03 06:56:00,55.6,29.5,30.02,East,90,2.9,3.6,37,0.00,,,0.00,WUHU216HW,2013-02-03 13:56:00,
2013-02-03 07:01:00,55.4,29.4,30.03,ESE,113,3.4,4.9,37,0.00,,,0.00,WUHU216HW,2013-02-03 14:01:00,
2013-02-03 07:06:00,55.4,29.4,30.03,ESE,113,2.0,4.9,37,0.00,,,0.00,WUHU216HW,2013-02-03 14:06:00,
2013-02-03 07:12:00,55.3,29.3,30.03,East,90,2.5,3.8,37,0.00,,,0.00,WUHU216HW,2013-02-03 14:12:00,
2013-02-03 07:17:00,55.1,29.1,30.04,ESE,113,2.9,6.9,37,0.00,,,0.00,WUHU216HW,2013-02-03 14:17:00,
2013-02-03 07:22:00,55.1,29.1,30.04,ENE,68,3.4,6.9,37,0.00,,,0.00,WUHU216HW,2013-02-03 14:22:00,
2013-02-03 07:27:00,55.1,29.1,30.04,East,90,4.5,6.0,37,0.00,,,0.00,WUHU216HW,2013-02-03 14:27:00,
2013-02-03 07:32:00,55.3,29.3,30.04,ENE,68,3.4,5.1,37,0.00,,,0.00,WUHU216HW,2013-02-03 14:32:00,
2013-02-03 07:37:00,55.3,29.3,30.04,ENE,68,2.2,4.7,37,0.00,,,0.00,WUHU216HW,2013-02-03 14:37:00,
2013-02-03 07:42:00,55.4,29.4,30.04,ENE,68,2.2,4.7,37,0.00,,,0.00,WUHU216HW,2013-02-03 14:42:00,
2013-02-03 07:47:00,55.4,29.4,30.03,ENE,68,2.0,3.8,37,0.00,,,0.00,WUHU216HW,2013-02-03 14:47:00,
2013-02-03 07:52:00,55.4,29.4,30.03,East,90,1.1,2.9,37,0.00,,,0.00,WUHU216HW,2013-02-03 14:52:00,
2013-02-03 07:57:00,55.4,29.4,30.03,SSE,158,0.4,1.8,37,0.00,,,0.00,WUHU216HW,2013-02-03 14:57:00,
2013-02-03 08:02:00,55.6,29.5,30.03,North,0,0.4,1.8,37,0.00,,,0.00,WUHU216HW,2013-02-03 15:02:00,
2013-02-03 08:07:00,55.8,29.7,30.03,NNW,338,1.8,2.0,37,0.00,,,0.00,WUHU216HW,2013-02-03 15:07:00,
2013-02-03 08:12:00,56.0,29.9,30.03,NNW,338,2.0,2.0,37,0.00,,,0.00,WUHU216HW,2013-02-03 15:12:00,
2013-02-03 08:17:00,56.3,29.5,30.04,WNW,293,1.1,2.0,36,0.00,,,0.00,WUHU216HW,2013-02-03 15:17:00,
2013-02-03 08:22:00,56.5,29.7,30.04,SSE,158,0.4,2.0,36,0.00,,,0.00,WUHU216HW,2013-02-03 15:22:00,
2013-02-03 08:27:00,56.9,30.7,30.04,ENE,68,1.1,1.6,37,0.00,,,0.00,WUHU216HW,2013-02-03 15:27:00,
2013-02-03 08:32:00,57.1,30.9,30.04,NNE,23,1.8,1.8,37,0.00,,,0.00,WUHU216HW,2013-02-03 15:32:00,
2013-02-03 08:37:00,57.2,31.1,30.04,NE,45,1.1,2.0,37,0.00,,,0.00,WUHU216HW,2013-02-03 15:37:00,
2013-02-03 08:42:00,57.2,31.1,30.04,NNE,23,1.3,2.0,37,0.00,,,0.00,WUHU216HW,2013-02-03 15:42:00,
2013-02-03 08:47:00,57.6,30.6,30.04,NNE,23,1.1,1.8,36,0.00,,,0.00,WUHU216HW,2013-02-03 15:47:00,
2013-02-03 08:52:00,57.8,30.8,30.04,NNE,23,2.2,3.1,36,0.00,,,0.00,WUHU216HW,2013-02-03 15:52:00,
2013-02-03 08:57:00,58.0,31.0,30.04,North,0,1.8,3.1,36,0.00,,,0.00,WUHU216HW,2013-02-03 15:57:00,
2013-02-03 09:02:00,58.1,31.2,30.04,North,0,1.3,2.7,36,0.00,,,0.00,WUHU216HW,2013-02-03 16:02:00,
2013-02-03 09:07:00,58.5,30.8,30.04,NNW,338,1.3,2.7,35,0.00,,,0.00,WUHU216HW,2013-02-03 16:07:00,
2013-02-03 09:12:00,58.7,30.3,30.04,NW,315,1.3,2.7,34,0.00,,,0.00,WUHU216HW,2013-02-03 16:12:00,
2013-02-03 09:17:00,59.0,32.0,30.04,WSW,248,2.7,2.7,36,0.00,,,0.00,WUHU216HW,2013-02-03 16:17:00,
2013-02-03 09:22:00,59.0,32.0,30.05,WNW,293,1.8,2.9,36,0.00,,,0.00,WUHU216HW,2013-02-03 16:22:00,
2013-02-03 09:27:00,59.2,32.1,30.05,NNW,338,1.8,3.4,36,0.00,,,0.00,WUHU216HW,2013-02-03 16:27:00,
2013-02-03 09:32:00,59.2,32.1,30.05,NNW,338,1.8,3.4,36,0.00,,,0.00,WUHU216HW,2013-02-03 16:32:00,
2013-02-03 09:56:00,60.7,31.1,30.04,WNW,293,2.5,2.5,33,0.00,,,0.00,WUHU216HW,2013-02-03 16:56:00,
2013-02-03 10:01:00,60.7,31.1,30.05,NW,315,1.8,2.5,33,0.00,,,0.00,WUHU216HW,2013-02-03 17:01:00,
2013-02-03 10:06:00,60.7,31.1,30.05,NW,315,1.8,2.2,33,0.00,,,0.00,WUHU216HW,2013-02-03 17:06:00,
2013-02-03 10:27:00,63.4,34.3,30.05,SSW,203,1.6,1.6,34,0.00,,,0.00,WUHU216HW,2013-02-03 17:27:00,
2013-02-03 10:32:00,63.5,34.5,30.05,SSE,158,1.6,1.6,34,0.00,,,0.00,WUHU216HW,2013-02-03 17:32:00,
2013-02-03 10:37:00,63.5,34.5,30.05,SSE,158,1.6,1.6,34,0.00,,,0.00,WUHU216HW,2013-02-03 17:37:00,
2013-02-03 10:57:00,65.3,34.7,30.05,SSE,158,2.2,2.2,32,0.00,,,0.00,WUHU216HW,2013-02-03 17:57:00,
2013-02-03 11:02:00,65.3,34.7,30.05,SSW,203,2.5,2.7,32,0.00,,,0.00,WUHU216HW,2013-02-03 18:02:00,
2013-02-03 11:07:00,65.3,34.7,30.05,SSW,203,2.5,2.7,32,0.00,,,0.00,WUHU216HW,2013-02-03 18:07:00,
2013-02-03 11:27:00,66.6,35.7,30.05,South,180,1.1,1.1,32,0.00,,,0.00,WUHU216HW,2013-02-03 18:27:00,
2013-02-03 11:32:00,66.6,35.7,30.05,SW,225,2.2,2.2,32,0.00,,,0.00,WUHU216HW,2013-02-03 18:32:00,
2013-02-03 11:37:00,66.6,35.7,30.05,SW,225,2.2,2.2,32,0.00,,,0.00,WUHU216HW,2013-02-03 18:37:00,
2013-02-03 11:57:00,67.0,36.1,30.04,SSW,203,0.9,0.9,32,0.00,,,0.00,WUHU216HW,2013-02-03 18:57:00,
2013-02-03 12:02:00,67.0,36.1,30.04,SSW,203,0.9,0.9,32,0.00,,,0.00,WUHU216HW,2013-02-03 19:02:00,
2013-02-03 12:07:00,67.0,36.1,30.04,SSW,203,0.9,0.9,32,0.00,,,0.00,WUHU216HW,2013-02-03 19:07:00,
2013-02-03 12:28:00,67.7,35.2,30.02,North,0,3.6,3.6,30,0.00,,,0.00,WUHU216HW,2013-02-03 19:28:00,
2013-02-03 12:33:00,67.7,35.2,30.02,North,0,2.5,4.0,30,0.00,,,0.00,WUHU216HW,2013-02-03 19:33:00,
2013-02-03 12:38:00,67.7,35.2,30.02,North,0,2.5,4.0,30,0.00,,,0.00,WUHU216HW,2013-02-03 19:38:00,
2013-02-03 12:58:00,66.4,35.7,30.01,SSW,203,3.6,3.6,32,0.00,,,0.00,WUHU216HW,2013-02-03 19:58:00,
2013-02-03 13:03:00,66.4,35.7,30.01,SSW,203,4.0,4.0,32,0.00,,,0.00,WUHU216HW,2013-02-03 20:03:00,
2013-02-03 13:08:00,66.4,35.7,30.01,SSW,203,4.0,4.0,32,0.00,,,0.00,WUHU216HW,2013-02-03 20:08:00,
2013-02-03 13:28:00,66.4,36.4,29.99,SSW,203,1.8,1.8,33,0.00,,,0.00,WUHU216HW,2013-02-03 20:28:00,
2013-02-03 13:33:00,66.4,36.4,29.99,SSW,203,1.8,1.8,33,0.00,,,0.00,WUHU216HW,2013-02-03 20:33:00,
2013-02-03 13:38:00,66.4,36.4,29.99,SSW,203,1.8,1.8,33,0.00,,,0.00,WUHU216HW,2013-02-03 20:38:00,
2013-02-03 13:57:00,67.5,36.5,29.97,ESE,113,4.5,4.5,32,0.00,,,0.00,WUHU216HW,2013-02-03 20:57:00,
2013-02-03 14:02:00,67.5,36.5,29.97,East,90,4.7,4.7,32,0.00,,,0.00,WUHU216HW,2013-02-03 21:02:00,
2013-02-03 14:07:00,67.5,36.5,29.97,East,90,4.7,4.7,32,0.00,,,0.00,WUHU216HW,2013-02-03 21:07:00,
2013-02-03 14:28:00,68.9,36.3,29.96,SSE,158,5.4,5.4,30,0.00,,,0.00,WUHU216HW,2013-02-03 21:28:00,
2013-02-03 14:33:00,68.9,36.3,29.96,SSE,158,5.4,5.4,30,0.00,,,0.00,WUHU216HW,2013-02-03 21:33:00,
2013-02-03 14:38:00,68.9,36.3,29.96,SSE,158,5.4,5.4,30,0.00,,,0.00,WUHU216HW,2013-02-03 21:38:00,
2013-02-03 14:57:00,69.7,35.9,29.96,SSE,158,3.1,3.1,29,0.00,,,0.00,WUHU216HW,2013-02-03 21:57:00,
2013-02-03 15:02:00,69.7,35.9,29.96,SSE,158,2.5,4.7,29,0.00,,,0.00,WUHU216HW,2013-02-03 22:02:00,
2013-02-03 15:07:00,69.7,35.9,29.96,SSE,158,2.5,4.7,29,0.00,,,0.00,WUHU216HW,2013-02-03 22:07:00,
2013-02-03 15:28:00,72.2,38.1,29.96,ESE,113,4.9,4.9,29,0.00,,,0.00,WUHU216HW,2013-02-03 22:28:00,
2013-02-03 15:33:00,72.2,37.1,29.96,ESE,113,5.4,5.4,28,0.00,,,0.00,WUHU216HW,2013-02-03 22:33:00,
2013-02-03 15:38:00,72.2,37.1,29.96,ESE,113,5.4,5.4,28,0.00,,,0.00,WUHU216HW,2013-02-03 22:38:00,
2013-02-03 15:57:00,70.6,32.7,29.96,ESE,113,3.1,3.1,25,0.00,,,0.00,WUHU216HW,2013-02-03 22:57:00,
2013-02-03 16:02:00,70.6,32.7,29.96,ESE,113,3.1,3.1,25,0.00,,,0.00,WUHU216HW,2013-02-03 23:02:00,
2013-02-03 16:07:00,70.6,32.7,29.96,ESE,113,3.1,3.1,25,0.00,,,0.00,WUHU216HW,2013-02-03 23:07:00,
2013-02-03 16:28:00,72.5,36.4,29.97,SW,225,2.9,2.9,27,0.00,,,0.00,WUHU216HW,2013-02-03 23:28:00,
2013-02-03 16:33:00,72.5,37.4,29.97,SW,225,3.6,3.6,28,0.00,,,0.00,WUHU216HW,2013-02-03 23:33:00,
2013-02-03 16:38:00,72.5,37.4,29.97,SW,225,3.6,3.6,28,0.00,,,0.00,WUHU216HW,2013-02-03 23:38:00,
2013-02-03 16:57:00,69.7,34.9,29.97,SW,225,4.0,4.0,28,0.00,,,0.00,WUHU216HW,2013-02-03 23:57:00,
2013-02-03 17:02:00,69.5,34.7,29.97,SW,225,4.0,4.0,28,0.00,,,0.00,WUHU216HW,2013-02-04 00:02:00,
2013-02-03 17:07:00,69.5,34.7,29.97,SW,225,4.0,4.0,28,0.00,,,0.00,WUHU216HW,2013-02-04 00:07:00,
2013-02-03 17:28:00,66.2,36.2,29.97,NNW,338,3.1,3.1,33,0.00,,,0.00,WUHU216HW,2013-02-04 00:28:00,
2013-02-03 17:33:00,66.2,36.9,29.97,WNW,293,2.5,3.1,34,0.00,,,0.00,WUHU216HW,2013-02-04 00:33:00,
2013-02-03 17:38:00,66.2,36.9,29.97,WNW,293,2.5,3.1,34,0.00,,,0.00,WUHU216HW,2013-02-04 00:38:00,
2013-02-03 17:57:00,63.4,36.5,29.97,NW,315,4.0,4.0,37,0.00,,,0.00,WUHU216HW,2013-02-04 00:57:00,
2013-02-03 18:02:00,63.4,36.5,29.97,NW,315,3.4,4.0,37,0.00,,,0.00,WUHU216HW,2013-02-04 01:02:00,
2013-02-03 18:07:00,63.4,36.5,29.97,NW,315,3.4,4.0,37,0.00,,,0.00,WUHU216HW,2013-02-04 01:07:00,
2013-02-03 18:27:00,62.1,34.7,29.98,NNW,338,4.7,4.7,36,0.00,,,0.00,WUHU216HW,2013-02-04 01:27:00,
2013-02-03 18:32:00,62.1,34.7,29.98,NNW,338,4.7,4.7,36,0.00,,,0.00,WUHU216HW,2013-02-04 01:32:00,
2013-02-03 18:37:00,62.1,34.7,29.98,NNW,338,4.7,4.7,36,0.00,,,0.00,WUHU216HW,2013-02-04 01:37:00,
2013-02-03 18:57:00,61.7,32.9,29.98,West,270,6.0,6.0,34,0.00,,,0.00,WUHU216HW,2013-02-04 01:57:00,
2013-02-03 19:02:00,61.7,32.9,29.98,NW,315,4.7,6.0,34,0.00,,,0.00,WUHU216HW,2013-02-04 02:02:00,
2013-02-03 19:07:00,61.7,32.9,29.98,NW,315,4.7,6.0,34,0.00,,,0.00,WUHU216HW,2013-02-04 02:07:00,
2013-02-03 19:27:00,61.4,35.4,29.99,West,270,7.6,7.6,38,0.00,,,0.00,WUHU216HW,2013-02-04 02:27:00,
2013-02-03 19:32:00,61.4,35.4,29.99,West,270,6.5,7.6,38,0.00,,,0.00,WUHU216HW,2013-02-04 02:32:00,
2013-02-03 19:37:00,61.4,35.4,29.99,West,270,6.5,6.9,38,0.00,,,0.00,WUHU216HW,2013-02-04 02:37:00,
2013-02-03 19:57:00,59.4,35.6,29.99,West,270,6.3,6.3,41,0.00,,,0.00,WUHU216HW,2013-02-04 02:57:00,
2013-02-03 20:02:00,59.4,35.6,29.99,WNW,293,4.7,6.3,41,0.00,,,0.00,WUHU216HW,2013-02-04 03:02:00,
2013-02-03 20:07:00,59.4,35.6,29.99,WNW,293,4.7,4.7,41,0.00,,,0.00,WUHU216HW,2013-02-04 03:07:00,
2013-02-03 20:27:00,58.7,36.7,30.00,WNW,293,9.8,9.8,44,0.00,,,0.00,WUHU216HW,2013-02-04 03:27:00,
2013-02-03 20:32:00,58.7,36.7,30.00,WNW,293,5.4,9.8,44,0.00,,,0.00,WUHU216HW,2013-02-04 03:32:00,
2013-02-03 20:37:00,58.7,36.7,30.00,WNW,293,5.4,9.8,44,0.00,,,0.00,WUHU216HW,2013-02-04 03:37:00,
2013-02-03 20:58:00,58.3,36.4,30.00,NW,315,4.7,4.7,44,0.00,,,0.00,WUHU216HW,2013-02-04 03:58:00,
2013-02-03 21:03:00,58.3,36.4,30.00,WNW,293,2.9,4.7,44,0.00,,,0.00,WUHU216HW,2013-02-04 04:03:00,
2013-02-03 21:08:00,58.3,36.4,30.00,WNW,293,2.9,4.7,44,0.00,,,0.00,WUHU216HW,2013-02-04 04:08:00,
2013-02-03 21:28:00,58.5,36.0,30.00,West,270,4.7,4.7,43,0.00,,,0.00,WUHU216HW,2013-02-04 04:28:00,
2013-02-03 21:33:00,58.7,36.2,30.00,West,270,4.9,4.9,43,0.00,,,0.00,WUHU216HW,2013-02-04 04:33:00,
2013-02-03 21:38:00,58.7,36.2,30.00,West,270,4.9,4.9,43,0.00,,,0.00,WUHU216HW,2013-02-04 04:38:00,
2013-02-03 21:58:00,58.0,36.6,30.00,ESE,113,1.1,1.1,45,0.00,,,0.00,WUHU216HW,2013-02-04 04:58:00,
2013-02-03 22:00:00,58.0,36.6,30.00,East,90,0.4,1.1,45,0.00,,,0.00,WUHU216HW,2013-02-04 05:00:00,
2013-02-03 22:02:00,58.0,36.6,30.00,East,90,0.4,1.1,45,0.00,,,0.00,WUHU216HW,2013-02-04 05:02:00,
2013-02-03 22:03:00,58.0,36.6,30.00,East,90,0.4,1.1,45,0.00,,,0.00,WUHU216HW,2013-02-04 05:03:00,
2013-02-03 22:28:00,56.2,36.1,30.00,SSE,158,4.3,4.3,47,0.00,,,0.00,WUHU216HW,2013-02-04 05:28:00,
2013-02-03 22:33:00,56.2,36.1,30.00,SSE,158,4.7,4.7,47,0.00,,,0.00,WUHU216HW,2013-02-04 05:33:00,
2013-02-03 22:38:00,56.2,36.1,30.00,SSE,158,4.7,4.7,47,0.00,,,0.00,WUHU216HW,2013-02-04 05:38:00,
2013-02-03 22:57:00,54.7,36.5,30.00,ESE,113,4.3,4.3,50,0.00,,,0.00,WUHU216HW,2013-02-04 05:57:00,
2013-02-03 23:02:00,54.7,36.5,30.00,SE,135,4.0,4.3,50,0.00,,,0.00,WUHU216HW,2013-02-04 06:02:00,
2013-02-03 23:07:00,54.7,36.5,30.00,SE,135,4.0,4.0,50,0.00,,,0.00,WUHU216HW,2013-02-04 06:07:00,
2013-02-03 23:28:00,54.0,35.8,30.01,SE,135,3.8,3.8,50,0.00,,,0.00,WUHU216HW,2013-02-04 06:28:00,
2013-02-03 23:33:00,54.0,35.8,30.01,East,90,1.8,3.8,50,0.00,,,0.00,WUHU216HW,2013-02-04 06:33:00,
2013-02-03 23:38:00,54.0,35.8,30.01,East,90,1.8,3.8,50,0.00,,,0.00,WUHU216HW,2013-02-04 06:38:00,
2013-02-03 23:57:00,53.3,35.7,30.01,East,90,3.6,3.6,51,0.00,,,0.00,WUHU216HW,2013-02-04 06:57:00,